Location: State Camp
(41.2367°N, 77.7828°W)
Time: 15:35:24
(UTC-05:00)

Daily predictions for brighter satellites

Satellite Brightness Start Highest point End
(mag) Time Altitude Azimuth Time Altitude Azimuth Time Altitude Azimuth
Meteor 1-11 Rocket 4.1 18:17:45 10° SSE 18:23:17 48° E 18:28:58 10° NNE
Cosmos 676 Rocket 4.3 18:18:07 10° SSW 18:23:18 77° WNW 18:28:34 10° NNE
NOAA 12 4.3 18:18:34 10° SE 18:23:43 52° ENE 18:28:53 10° N
Cosmos 2333 Rocket 3.6 18:21:27 10° N 18:25:35 20° NE 18:29:40 10° E
Cosmos 1140 Rocket 3.5 18:21:08 10° S 18:26:13 69° ESE 18:31:22 10° NNE
Cosmos 614 Rocket 4.1 18:22:19 10° S 18:27:13 52° ESE 18:32:08 10° NNE
NOSS 8 (E) 4.5 18:26:40 10° SSW 18:30:06 78° ESE 18:33:50 10° NE
FENGYUN 3A 4.3 18:26:10 10° SE 18:30:56 33° ENE 18:35:43 10° N
ATLAS CENTAUR R/B 3.5 18:31:54 10° SSE 18:34:10 13° SE 18:35:47 10° ESE
Cosmos 2322 Rocket 4.3 18:30:39 10° NW 18:35:34 32° WSW 18:40:29 10° SSW
GPS 2-04 Rocket1 4.0 18:31:51 10° SW 18:35:39 33° S 18:39:33 10° ESE
Meteor 1-28 Rocket 3.4 18:31:58 10° N 18:35:47 80° WNW 18:39:35 10° SSW
Cosmos 1570 Rocket 4.2 18:30:55 10° N 18:36:01 50° ENE 18:41:06 10° SE
Cosmos 2181 Rocket 4.0 18:30:02 10° N 18:36:18 68° E 18:42:37 10° SSE
Cosmos 1633 2.5 18:35:02 10° S 18:38:42 86° E 18:42:24 10° N
USA 229 DEB 4.1 18:32:18 10° NNW 18:39:10 48° NE 18:46:06 10° ESE
USA 229 4.1 18:32:24 10° NNW 18:39:14 47° NE 18:46:11 10° ESE
Genesis I 3.2 18:35:58 10° NNW 18:39:54 72° NE 18:43:49 10° SE
Cosmos 1238 Rocket 2.0 18:37:31 10° N 18:40:28 72° E 18:43:31 10° SSE
Okean 1 Rocket 3.2 18:37:13 10° S 18:41:37 57° E 18:46:01 10° NNE
Cosmos 1709 Rocket 4.1 18:37:33 10° S 18:43:46 86° W 18:49:58 10° N
Cosmos 2074 Rocket 4.4 18:39:31 10° SSE 18:45:19 42° E 18:51:10 10° NNE
NOSS 8 (H) 4.3 18:42:02 10° SSW 18:45:24 81° ESE 18:49:00 10° NE
METEOR-M 4.1 18:40:16 10° SSE 18:45:36 81° ENE 18:50:58 10° N
Cosmos 1025 Rocket 3.6 18:44:07 10° N 18:48:11 36° ENE 18:52:16 10° SE
OTV 4 2.5 18:48:02 10° SSW 18:49:56 16° SSE 18:51:22 12° SE
Spot 2 Rocket 4.0 18:46:09 10° SE 18:50:44 36° ENE 18:55:22 10° N
Cosmos 2184 Rocket 4.3 18:45:45 10° SSE 18:51:41 45° E 18:57:35 10° NNE
FengYun 1-2 T 4.3 18:50:31 10° SE 18:55:49 53° ENE 19:01:10 10° N
Cosmos 2322 4.2 18:51:44 10° NNW 18:57:25 66° WSW 19:03:02 10° S
Hubble Space Telescope 3.1 18:59:47 10° SSW 19:01:18 12° S 19:02:50 10° SSE
BREEZE-M DEB (TANK) 2.5 18:59:53 10° SW 19:04:07 54° SSE 19:05:20 26° E
Cosmos 1850 Rocket 4.1 19:00:51 10° SSW 19:06:09 83° WNW 19:11:33 10° NNE
Cosmos 2208 Rocket 4.0 19:01:37 10° NNW 19:07:06 87° ENE 19:12:29 10° SSE
Envisat 4.4 19:06:50 18° ENE 19:07:30 18° ENE 19:10:52 10° NNE
SJ-6B 3.0 19:05:07 10° S 19:09:05 74° WSW 19:12:59 10° NNW
Cosmos 1544 Rocket 4.4 19:05:32 10° SSE 19:09:11 27° E 19:12:51 10° NNE
NOSS 0 Rocket 4.3 19:04:47 10° NNW 19:10:37 43° ENE 19:15:08 16° ESE
Cosmos 405 Rocket 3.5 19:07:19 10° N 19:11:02 33° ENE 19:13:11 20° SE
Cosmos 2237 Rocket 3.0 19:06:57 10° N 19:12:00 31° ENE 19:14:36 22° E
ALOS 2.2 19:08:03 10° SSE 19:12:42 79° ENE 19:17:24 10° N
HJ-1C 3.2 19:10:34 10° SSE 19:13:56 81° ENE 19:17:18 10° N
Cosmos 2297 Rocket 3.3 19:10:04 10° SSE 19:14:16 22° E 19:14:23 22° E
Cosmos 2333 4.2 19:08:40 10° NNW 19:14:26 80° ENE 19:20:12 10° SSE
H-2A R/B 2.8 19:12:11 10° SSE 19:15:48 52° ENE 19:19:28 10° N
COSMOS 2428 2.7 19:10:33 10° NNW 19:16:17 87° WSW 19:21:58 10° SSE
CZ-2D R/B 3.7 19:14:14 19° SE 19:16:32 39° ENE 19:20:07 10° N
Okean 1-7 Rocket 3.8 19:14:29 10° N 19:19:00 76° W 19:23:27 10° S
Cosmos 2154 Rocket 4.4 19:15:19 10° SSE 19:21:10 41° E 19:27:02 10° NNE
Meteor 2-4 Rocket 3.9 19:16:12 10° NNW 19:21:42 73° W 19:27:03 10° S
Cosmos 2285 Rocket 4.0 19:16:41 10° NNW 19:23:08 75° ENE 19:29:31 10° SSE
Gbstr 26 Del rocket 3.9 19:19:45 10° W 19:23:16 35° NNW 19:25:40 17° NNE
Cosmos 2360 Rocket 4.0 19:19:21 10° NW 19:24:23 34° WSW 19:29:24 10° SSW
Cosmos 2219 Rocket 2.2 19:18:54 10° NNW 19:24:28 62° ENE 19:28:57 16° SE
Meteor 1-23 Rocket 4.4 19:21:39 10° NNW 19:27:28 81° W 19:33:11 10° S
Okean 2 3.3 19:24:28 10° N 19:28:39 70° E 19:32:48 10° SSE
Cosmos 2219 3.7 19:26:51 10° SW 19:32:32 63° WNW 19:38:15 10° NNE
Atlas Centaur 2 4.1 19:30:03 10° SSW 19:34:15 16° SSE 19:35:47 15° SE
Cosmos 2227 Rocket 2.5 19:29:11 10° S 19:34:28 43° ESE 19:38:28 17° NE
Helios 1A 3.0 19:33:28 37° SE 19:34:44 52° ENE 19:38:47 10° N
Cosmos 1486 Rocket 4.5 19:30:05 10° SSE 19:34:56 37° ESE 19:36:14 32° ENE
Helios 1B rocket 2.6 19:31:18 10° NNE 19:35:20 46° E 19:39:19 10° S
Abrixas rocket 3.0 19:33:08 10° W 19:36:25 48° NNW 19:37:11 39° NNE
SAR-Lupe-1 4.0 19:44:47 68° NE 19:44:47 68° NE 19:48:10 10° N
SAR-Lupe-4 3.4 19:44:54 62° SSE 19:45:26 86° ENE 19:49:02 10° NNW
Cosmos 1455 Rocket 3.0 19:42:15 10° S 19:46:33 58° E 19:50:51 10° NNE
Cosmos 841 Rocket 4.2 19:42:07 10° N 19:46:24 34° NE 19:46:24 34° NE
SL-16 R/B 3.3 19:43:00 10° N 19:47:22 26° NE 19:47:22 26° NE
Cosmos 1437 4.5 19:51:13 10° N 19:52:45 25° N 19:52:45 25° N
Cosmos 1763 Rocket 3.6 19:52:32 10° N 19:57:29 52° ENE 19:57:29 52° ENE
Resurs 01 Rocket 2.8 19:55:19 10° S 19:59:29 42° W 20:03:42 10° NNW
Cosmos 2333 Rocket 2.4 20:04:41 10° NNW 20:10:25 71° WSW 20:12:59 34° S
Cosmos 1980 3.6 20:05:46 10° NNW 20:11:27 86° WSW 20:12:50 54° SSE
GEOS 3 Rocket 3.8 20:08:21 24° NNE 20:11:35 69° NW 20:16:50 10° SW
GPS 2-04 Rocket1 4.1 20:11:09 10° WSW 20:14:12 33° SW 20:14:12 33° SW
Cosmos 1295 Rocket 4.3 20:33:36 80° S 20:33:58 89° E 20:40:19 10° N
Cosmos 2082 3.9 20:31:01 10° SSW 20:36:43 68° WNW 20:37:59 52° N
ERS-1 Rocket 4.5 20:45:10 28° N 20:45:10 28° N 20:47:31 10° NNW
NOSS 3-1 (A) 3.9 20:35:26 10° NW 20:43:08 89° ENE 20:44:06 73° SE
Envisat 3.8 20:47:02 48° WNW 20:47:02 48° WNW 20:51:04 10° NNW
ATLAS 2AS CENTAUR R/B 3.8 20:41:24 10° NNW 20:48:06 36° NNE 20:48:06 36° NNE
Cosmos 2237 Rocket 3.3 20:50:51 10° NW 20:56:08 40° WSW 20:56:29 39° WSW
Cosmos 2297 Rocket 3.2 20:52:22 10° SW 20:56:25 42° WSW 20:56:25 42° WSW
NOSS 3-1 (C) 4.4 20:53:21 10° NW 21:00:54 60° WSW 21:02:16 53° SSW
Cosmos 2227 Rocket 3.9 21:13:47 10° WSW 21:18:39 29° NW 21:20:36 24° NNW
SL-16 R/B 4.0 21:26:40 10° NW 21:29:17 26° NW 21:29:17 26° NW
